Flag for France Weather past 2 weeks in Bordeaux, France

Now
50 °F

Clear.


Feels Like: 50 °F
Forecast: 47 / 71 °F
Wind: No wind

Location: Bordeaux / Merignac


UV Index: 3 (Moderate)

Visibility: N/A


Pressure: 30.12 "Hg

Humidity: 71%

Dew point: 41 °F

Location of BordeauxLocation

Historic Weather in Bordeaux

°F

Bordeaux temperature yesterday

Maximum temperature yesterday: 75 °F (at 5:00 PM)
Minimum temperature yesterday: 45 °F (at 7:30 AM)
Average temperature yesterday: 61 °F

Past Weeks' High & Low Weather Summary

 TemperatureHumidityPressure
High75 °F (Apr 10, 3:30 PM)100% (Apr 2, 11:30 PM)30.36 "Hg (Apr 2, 11:30 PM)
Low41 °F (Apr 9, 7:00 AM)20% (Apr 16, 3:30 PM)29.47 "Hg (Apr 2, 4:30 PM)
Average58 °F70%30.03 "Hg
* Reported Apr 2 8:00 AM — Apr 17 8:30 AM, Bordeaux, Weather by CustomWeather, © 2014

Note: Actual official high and low records may vary slightly from our data, if they occured in-between our weather recording intervals... More about our weather records

Advertising

Historic Weather Conditions — Data for Previous 24 hours

 ConditionsComfort  
Time TempWeatherWind HumidityBarometerVisibility
8:30 AM
Apr 17
46 °FClear.2 mph76%30.12 "HgN/A
8:00 AM45 °FClear.1 mph81%30.09 "HgN/A
7:30 AM41 °FClear.1 mph87%30.09 "HgN/A
7:00 AM41 °FClear.No wind87%30.09 "HgN/A
6:30 AM43 °FClear.No wind81%30.09 "HgN/A
6:00 AM43 °FClear.2 mph81%30.09 "HgN/A
5:30 AM43 °FClear.2 mph81%30.09 "HgN/A
5:00 AM45 °FClear.1 mph76%30.09 "HgN/A
4:30 AM45 °FClear.No wind81%30.09 "HgN/A
4:00 AM46 °FClear.3 mph76%30.09 "HgN/A
3:30 AM46 °FClear.3 mph76%30.09 "HgN/A
3:00 AM48 °FClear.3 mph82%30.09 "HgN/A
2:30 AM50 °FClear.3 mph71%30.09 "HgN/A
2:00 AM50 °FClear.No wind62%30.09 "HgN/A
1:30 AM54 °FClear.3 mph58%30.09 "HgN/A
1:00 AM55 °FClear.6 mph55%30.09 "HgN/A
12:30 AM57 °FClear.6 mph51%30.09 "HgN/A
12:00 AM57 °FClear.6 mph51%30.09 "HgN/A
11:30 PM
Apr 16
59 °FClear.5 mph48%30.09 "HgN/A
11:00 PM61 °FClear.6 mph48%30.09 "HgN/A
10:30 PM63 °FClear.6 mph45%30.09 "HgN/A
10:00 PM64 °FClear.8 mph40%30.09 "HgN/A
9:30 PM66 °FClear.9 mph37%30.09 "HgN/A
9:00 PM68 °FClear.8 mph35%30.07 "HgN/A
8:30 PM72 °FClear.8 mph31%30.07 "HgN/A
8:00 PM73 °FClear.6 mph25%30.07 "HgN/A
7:30 PM75 °FClear.6 mph22%30.07 "HgN/A
7:00 PM75 °FClear.8 mph21%30.07 "HgN/A
6:30 PM75 °FClear.8 mph22%30.07 "HgN/A
6:00 PM75 °FClear.10 mph22%30.07 "HgN/A
5:30 PM75 °FClear.9 mph21%30.07 "HgN/A
5:00 PM75 °FClear.7 mph22%30.07 "HgN/A
4:30 PM73 °FClear.9 mph22%30.07 "HgN/A
4:00 PM73 °FClear.7 mph20%30.09 "HgN/A
3:30 PM72 °FClear.6 mph20%30.09 "HgN/A
3:00 PM72 °FClear.7 mph22%30.09 "HgN/A
2:30 PM70 °FClear.7 mph29%30.09 "HgN/A
2:00 PM68 °FClear.7 mph24%30.09 "HgN/A
1:30 PM68 °FClear.7 mph33%30.09 "HgN/A
1:00 PM66 °FClear.7 mph32%30.12 "HgN/A
12:30 PM63 °FClear.8 mph37%30.12 "HgN/A
12:00 PM63 °FClear.6 mph34%30.12 "HgN/A
11:30 AM61 °FClear.6 mph34%30.12 "HgN/A
11:00 AM59 °FClear.5 mph39%30.12 "HgN/A
10:30 AM57 °FClear.7 mph39%30.12 "HgN/A
10:00 AM54 °FClear.7 mph44%30.12 "HgN/A
9:30 AM52 °FClear.7 mph50%30.12 "HgN/A
9:00 AM50 °FClear.7 mph54%30.12 "HgN/A
Weather by CustomWeather, © 2014

See weather overview